Voltar ao catálogo

CZ-6A DEB

AtivoSSO
NORAD 54309·DEBRIS·🇨🇳 China

Lançado Nov 11, 2022 de Taiyuan Satellite Launch Center

Loading…

Próximas Passagens (próximas 24 horas)

TLE

AtualizadoSource: Space-Track

Época: Sep 14, 2026, 23:11 UTC

1 54309U 22151BC  26257.96657310  .00000260  00000-0  16251-3 0  9997
2 54309  98.8344 260.8336 0037743  65.9928 294.5188 14.12728767197379

Acompanhe CZ-6A DEB em tempo real com AllMySat

Download on the App Store